Home > Time Zones > World Clock > Weather > Spain > Cadiz > Past weeks

Flag for Spain Weather past 2 weeks in Cadiz, Cádiz, Spain

Now
52 °F

Sunny.


Feels Like: 51 °F
Forecast: 47 / 57 °F
Wind: 3 mph from North

Location: Rota Airport

Current Time: Feb 1, 2015 at 1:17:31 PM

Latest Report: Feb 1, 2015 at 1:00 PM


Visibility: 10 mi

Pressure: 30.21 "Hg

Humidity: 54%

Dew point: 36 °F

Location of CadizLocation

Historic Weather in Cadiz — Graph

°F

Cadiz temperature yesterday

Maximum temperature yesterday: 61 °F (at 11:00 AM)
Minimum temperature yesterday: 52 °F (at 11:00 PM)
Average temperature yesterday: 58 °F

Past Weeks' High & Low Weather Summary

 TemperatureHumidityPressure
High63 °F (Jan 26, 5:00 PM)100% (Jan 18, 1:00 PM)30.39 "Hg (Jan 18, 1:00 PM)
Low39 °F (Jan 21, 12:00 AM)42% (Jan 26, 5:00 PM)29.68 "Hg (Jan 19, 5:00 AM)
Average51 °F79%30.12 "Hg
* Reported Jan 17 12:00 Noon — Feb 1 12:00 Noon, Cadiz, Weather by CustomWeather, © 2014

Note: Actual official high and low records may vary slightly from our data, if they occured in-between our weather recording intervals... More about our weather records

Advertising

Cadiz weather history for previous 24 hours

 ConditionsComfort  
Time TempWeatherWind HumidityBarometerVisibility
12:00 PM
Feb 1
50 °FPassing clouds.9 mph62%30.21 "HgN/A
11:00 AM48 °FPassing clouds.12 mph66%30.18 "HgN/A
10:00 AM48 °FPassing clouds.10 mph66%30.18 "HgN/A
9:00 AM45 °FPassing clouds.8 mph76%30.15 "HgN/A
8:00 AM45 °FPassing clouds.14 mph76%30.12 "HgN/A
7:00 AM45 °FClear.10 mph76%30.09 "Hg10 mi
6:00 AM46 °FPassing clouds.13 mph71%30.09 "HgN/A
5:00 AM46 °FPassing clouds.13 mph71%30.07 "HgN/A
4:00 AM48 °FPassing clouds.15 mph66%30.07 "HgN/A
3:00 AM48 °FClear.17 mph66%30.07 "Hg10 mi
2:00 AM50 °FClear.15 mph67%30.07 "Hg10 mi
1:00 AM50 °FPassing clouds.17 mph67%30.04 "HgN/A
12:00 AM52 °FPassing clouds.18 mph58%30.04 "HgN/A
11:00 PM
Jan 31
52 °FPassing clouds.16 mph62%30.01 "HgN/A
10:00 PM54 °FPassing clouds.17 mph63%29.98 "HgN/A
9:00 PM54 °FPassing clouds.18 mph63%29.98 "HgN/A
8:00 PM55 °FPassing clouds.20 mph63%29.95 "HgN/A
7:00 PM57 °FPassing clouds.17 mph59%29.92 "HgN/A
6:00 PM59 °FPassing clouds.16 mph55%29.86 "HgN/A
5:00 PM59 °FPassing clouds.15 mph68%29.86 "HgN/A
4:00 PM59 °FPassing clouds.17 mph63%29.83 "HgN/A
3:00 PM59 °FPassing clouds.16 mph68%29.83 "HgN/A
2:00 PM61 °FPassing clouds.20 mph63%29.86 "HgN/A
1:00 PM61 °FPassing clouds.24 mph63%29.86 "HgN/A
Weather by CustomWeather, © 2014

See weather overviewHow to use our weather pages